Time,TemperatureF,DewpointF,PressureIn,WindDirection,WindDirectionDegrees,WindSpeedMPH,WindSpeedGustMPH,Humidity,HourlyPrecipIn,Conditions,Clouds,dailyrainin,SoftwareType,DateUTC
2013-09-23 00:14:00,52.0,41.0,29.96,North,0,2.0,2.0,65,0.00,,,0.00,,2013-09-23 04:14:00,
2013-09-23 00:24:00,52.0,41.0,29.95,NNE,22,2.0,3.0,65,0.00,,,0.00,,2013-09-23 04:24:00,
2013-09-23 00:54:00,51.0,40.0,29.96,NNW,338,1.0,2.0,66,0.00,,,0.00,,2013-09-23 04:54:00,
2013-09-23 01:12:00,51.0,40.0,29.96,NW,315,1.0,3.0,67,0.00,,,0.00,,2013-09-23 05:12:00,
2013-09-23 01:23:00,51.0,39.0,29.97,NNW,338,2.0,3.0,64,0.00,,,0.00,,2013-09-23 05:23:00,
2013-09-23 01:43:00,50.0,38.0,29.97,NNW,339,2.0,3.0,64,0.00,,,0.00,,2013-09-23 05:43:00,
2013-09-23 01:53:00,50.0,38.0,29.98,NNE,21,1.0,2.0,64,0.00,,,0.00,,2013-09-23 05:53:00,
2013-09-23 02:13:00,50.0,39.0,29.98,North,0,1.0,2.0,65,0.00,,,0.00,,2013-09-23 06:13:00,
2013-09-23 02:22:00,50.0,39.0,29.98,NW,315,1.0,2.0,66,0.00,,,0.00,,2013-09-23 06:22:00,
2013-09-23 02:52:00,49.0,40.0,29.97,SSW,202,0.0,1.0,70,0.00,,,0.00,,2013-09-23 06:52:00,
2013-09-23 03:22:00,49.0,40.0,29.97,West,270,0.0,1.0,71,0.00,,,0.00,,2013-09-23 07:22:00,
2013-09-23 03:52:00,49.0,41.0,29.98,West,269,0.0,0.0,73,0.00,,,0.00,,2013-09-23 07:52:00,
2013-09-23 04:11:00,49.0,41.0,29.98,WSW,248,0.0,0.0,74,0.00,,,0.00,,2013-09-23 08:11:00,
2013-09-23 04:23:00,48.0,40.0,29.98,NW,315,0.0,0.0,74,0.00,,,0.00,,2013-09-23 08:23:00,
2013-09-23 04:52:00,48.0,40.0,29.98,WNW,295,0.0,1.0,73,0.00,,,0.00,,2013-09-23 08:52:00,
2013-09-23 05:11:00,48.0,40.0,29.98,West,269,1.0,2.0,73,0.00,,,0.00,,2013-09-23 09:11:00,
2013-09-23 05:21:00,48.0,40.0,30.00,WSW,248,1.0,2.0,73,0.00,,,0.00,,2013-09-23 09:21:00,
2013-09-23 05:53:00,48.0,40.0,30.00,SSW,199,0.0,2.0,74,0.00,,,0.00,,2013-09-23 09:53:00,
2013-09-23 06:23:00,48.0,40.0,30.00,SW,226,0.0,2.0,74,0.00,,,0.00,,2013-09-23 10:23:00,
2013-09-23 06:53:00,48.0,40.0,30.01,West,268,0.0,2.0,75,0.00,,,0.00,,2013-09-23 10:53:00,
2013-09-23 07:12:00,48.0,40.0,30.01,West,270,1.0,1.0,75,0.00,,,0.00,,2013-09-23 11:12:00,
2013-09-23 07:22:00,48.0,40.0,30.02,South,188,1.0,2.0,75,0.00,,,0.00,,2013-09-23 11:22:00,
2013-09-23 07:52:00,48.0,40.0,30.03,South,185,0.0,3.0,75,0.00,,,0.00,,2013-09-23 11:52:00,
2013-09-23 08:11:00,48.0,41.0,30.03,NNW,331,0.0,3.0,76,0.00,,,0.00,,2013-09-23 12:11:00,
2013-09-23 08:22:00,49.0,41.0,30.03,NW,315,0.0,1.0,75,0.00,,,0.00,,2013-09-23 12:22:00,
2013-09-23 08:52:00,49.0,41.0,30.12,SE,126,0.0,0.0,74,0.00,,,0.00,,2013-09-23 12:52:00,
2013-09-23 09:11:00,49.0,41.0,30.12,ESE,106,0.0,1.0,74,0.00,,,0.00,,2013-09-23 13:11:00,
2013-09-23 09:22:00,50.0,42.0,30.14,West,279,0.0,1.0,73,0.00,,,0.00,,2013-09-23 13:22:00,
2013-09-23 09:42:00,50.0,42.0,30.14,NNW,347,0.0,1.0,73,0.00,,,0.00,,2013-09-23 13:42:00,
2013-09-23 09:52:00,51.0,42.0,30.14,NE,42,1.0,2.0,71,0.00,,,0.00,,2013-09-23 13:52:00,
2013-09-23 10:12:00,51.0,42.0,30.14,North,357,1.0,2.0,71,0.00,,,0.00,,2013-09-23 14:12:00,
2013-09-23 10:22:00,51.0,42.0,30.12,NNW,335,1.0,2.0,71,0.00,,,0.00,,2013-09-23 14:22:00,
2013-09-23 10:52:00,52.0,42.0,30.13,North,354,1.0,2.0,69,0.00,,,0.00,,2013-09-23 14:52:00,
2013-09-23 11:12:00,52.0,42.0,30.12,WSW,253,1.0,2.0,69,0.00,,,0.00,,2013-09-23 15:12:00,
2013-09-23 11:22:00,52.0,42.0,30.14,NW,319,0.0,2.0,69,0.00,,,0.00,,2013-09-23 15:22:00,
2013-09-23 11:54:00,54.0,43.0,30.14,North,0,1.0,2.0,65,0.00,,,0.00,,2013-09-23 15:54:00,
2013-09-23 12:24:00,55.0,43.0,30.14,West,259,1.0,2.0,64,0.00,,,0.00,,2013-09-23 16:24:00,
2013-09-23 12:53:00,56.0,44.0,30.14,South,189,1.0,2.0,63,0.00,,,0.00,,2013-09-23 16:53:00,
2013-09-23 13:12:00,57.0,44.0,30.14,NNW,342,1.0,2.0,61,0.00,,,0.00,,2013-09-23 17:12:00,
2013-09-23 13:24:00,59.0,45.0,30.14,NW,320,1.0,2.0,59,0.00,,,0.00,,2013-09-23 17:24:00,
2013-09-23 13:42:00,59.0,43.0,30.13,NE,56,1.0,2.0,56,0.00,,,0.00,,2013-09-23 17:42:00,
2013-09-23 13:52:00,59.0,44.0,30.09,NNW,329,1.0,2.0,57,0.00,,,0.00,,2013-09-23 17:52:00,
2013-09-23 14:13:00,60.0,44.0,30.08,NW,308,1.0,2.0,56,0.00,,,0.00,,2013-09-23 18:13:00,
2013-09-23 14:22:00,60.0,44.0,30.09,NW,315,2.0,2.0,55,0.00,,,0.00,,2013-09-23 18:22:00,
2013-09-23 14:52:00,62.0,45.0,30.06,WSW,248,1.0,5.0,54,0.00,,,0.00,,2013-09-23 18:52:00,
2013-09-23 15:12:00,62.0,44.0,30.06,NW,326,2.0,5.0,52,0.00,,,0.00,,2013-09-23 19:12:00,
2013-09-23 15:53:00,64.0,46.0,30.08,North,3,1.0,3.0,52,0.00,,,0.00,,2013-09-23 19:53:00,
2013-09-23 16:22:00,63.0,44.0,30.10,North,356,2.0,3.0,50,0.00,,,0.00,,2013-09-23 20:22:00,
2013-09-23 16:52:00,64.0,44.0,30.09,NNE,20,1.0,2.0,48,0.00,,,0.00,,2013-09-23 20:52:00,
2013-09-23 17:23:00,64.0,44.0,30.09,North,3,1.0,2.0,48,0.00,,,0.00,,2013-09-23 21:23:00,
2013-09-23 17:54:00,62.0,43.0,30.10,NNW,338,1.0,2.0,49,0.00,,,0.00,,2013-09-23 21:54:00,
2013-09-23 18:13:00,61.0,42.0,30.10,SW,234,1.0,2.0,50,0.00,,,0.00,,2013-09-23 22:13:00,
2013-09-23 18:24:00,60.0,42.0,30.11,NNW,338,1.0,2.0,52,0.00,,,0.00,,2013-09-23 22:24:00,
2013-09-23 18:54:00,58.0,42.0,30.03,North,3,1.0,2.0,55,0.00,,,0.00,,2013-09-23 22:54:00,
2013-09-23 19:22:00,57.0,43.0,30.03,NNW,340,0.0,1.0,60,0.00,,,0.00,,2013-09-23 23:22:00,
2013-09-23 19:54:00,55.0,43.0,30.04,NNE,22,0.0,1.0,63,0.00,,,0.00,,2013-09-23 23:54:00,
2013-09-23 20:22:00,54.0,43.0,30.04,SE,135,0.0,1.0,66,0.00,,,0.00,,2013-09-24 00:22:00,
2013-09-23 20:42:00,53.0,42.0,30.04,NNE,22,0.0,0.0,67,0.00,,,0.00,,2013-09-24 00:42:00,
2013-09-23 20:52:00,53.0,42.0,30.05,ENE,68,0.0,2.0,66,0.00,,,0.00,,2013-09-24 00:52:00,
2013-09-23 21:12:00,53.0,43.0,30.05,NNE,22,0.0,0.0,68,0.00,,,0.00,,2013-09-24 01:12:00,
2013-09-23 21:22:00,52.0,43.0,30.05,NE,45,0.0,0.0,70,0.00,,,0.00,,2013-09-24 01:22:00,
2013-09-23 21:43:00,51.0,42.0,30.05,NE,46,0.0,1.0,70,0.00,,,0.00,,2013-09-24 01:43:00,
2013-09-23 21:52:00,52.0,42.0,30.05,North,357,0.0,1.0,69,0.00,,,0.00,,2013-09-24 01:52:00,
2013-09-23 22:23:00,51.0,42.0,30.06,NNE,22,0.0,1.0,70,0.00,,,0.00,,2013-09-24 02:23:00,
2013-09-23 22:42:00,51.0,42.0,30.06,NNE,22,0.0,1.0,70,0.00,,,0.00,,2013-09-24 02:42:00,
2013-09-23 22:52:00,50.0,41.0,30.06,NNE,22,1.0,2.0,71,0.00,,,0.00,,2013-09-24 02:52:00,
2013-09-23 23:12:00,50.0,41.0,30.06,NNE,22,1.0,1.0,72,0.00,,,0.00,,2013-09-24 03:12:00,
2013-09-23 23:22:00,49.0,40.0,30.06,NNE,22,1.0,2.0,72,0.00,,,0.00,,2013-09-24 03:22:00,
2013-09-23 23:55:00,49.0,41.0,30.07,SW,228,0.0,1.0,73,0.00,,,0.00,,2013-09-24 03:55:00,